Location: Stone Trail Observatory
(44.2408°N, 105.6081°W)
Time: 05:04:06
(UTC-06:00)

Iridium 6 - Visible Passes

Search period start: 30 May 2017 00:00
Search period end: 09 June 2017 00:00
Orbit: 776 x 779 km, 86.4° (Epoch: 29 May)

Date Brightness Start Highest point End Pass type
(mag) Time Alt. Az. Time Alt. Az. Time Alt. Az.
02 Jun 8.6 04:34:05 10° E 04:36:09 12° ENE 04:38:14 10° NE visible
05 Jun 8.3 04:32:38 10° ESE 04:36:02 18° ENE 04:39:25 10° NE visible
08 Jun 7.9 04:31:47 10° SE 04:35:57 25° E 04:40:08 10° NNE visible
